FW2178 Weather Reports


Display with metric or nautical units.
time (UTC)temp
F
wind
direction
speed
MPH
gust
MPH
rain 1hr
in
rain 24hr
in
rain mn
in
humidity
%
barometer
mb
20260510043451 55 128 0.0 0.0 0.00 0.00 0.00 85 1014.6
20260510042950 56 128 0.0 0.0 0.00 0.00 0.00 84 1014.4
20260510042449 56 128 0.0 0.0 0.00 0.00 0.00 84 1014.4
20260510041949 56 128 0.0 0.0 0.00 0.00 0.00 83 1014.5
20260510041449 56 128 0.0 0.0 0.00 0.00 0.00 83 1014.2
20260510040950 56 128 0.0 0.0 0.00 0.00 0.00 82 1014.4
20260510040449 57 128 0.0 0.0 0.00 0.00 0.00 82 1014.6
20260510040242 57 128 0.0 0.0 0.00 0.00 0.00 82 1014.4
20260510035449 57 128 0.0 0.0 0.00 0.00 0.00 82 1014.4
20260510034951 57 128 0.0 0.0 0.00 0.00 0.00 82 1014.2
20260510034449 57 128 0.0 0.0 0.00 0.00 0.00 82 1014.4
20260510034239 57 128 0.0 0.0 0.00 0.00 0.00 82 1014.1
20260510033449 57 128 0.0 0.0 0.00 0.00 0.00 83 1014.3
20260510032950 57 128 0.0 0.0 0.00 0.00 0.00 83 1014.5
20260510032449 58 128 0.0 0.0 0.00 0.00 0.00 82 1014.3
20260510032239 58 128 0.0 0.0 0.00 0.00 0.00 82 1014.5
20260510031449 58 128 0.0 0.0 0.00 0.00 0.00 80 1014.6
20260510030948 58 128 0.0 0.0 0.00 0.00 0.00 82 1014.5
20260510030449 58 128 0.0 0.0 0.00 0.00 0.00 80 1014.7
20260510025949 59 128 0.0 0.0 0.00 0.00 0.00 81 1014.7
20260510025448 59 128 0.0 0.0 0.00 0.00 0.00 80 1014.6
20260510025120 60 128 0.0 0.0 0.00 0.00 0.00 77 1014.8
20260510025115 60 128 0.0 0.0 0.00 0.00 0.00 75 1014.7
20260510025049 59 128 0.0 0.0 0.00 0.00 0.00 78 1014.6
20260510023448 60 128 0.0 0.0 0.00 0.00 0.00 77 1014.8
20260510022948 60 128 0.0 0.0 0.00 0.00 0.00 76 1014.7
20260510022742 61 128 0.0 0.0 0.00 0.00 0.00 75 1014.9
20260510021948 61 128 0.0 0.0 0.00 0.00 0.00 79 1014.9
20260510021448 62 128 0.0 0.0 0.00 0.00 0.00 74 1014.7
20260510020947 62 128 0.0 0.0 0.00 0.00 0.00 75 1015.0
20260510020449 62 128 0.0 0.0 0.00 0.00 0.00 77 1014.9
20260510015949 62 128 0.0 0.0 0.00 0.00 0.00 73 1015.2
20260510015448 62 128 0.0 0.0 0.00 0.00 0.00 74 1015.3
20260510014948 63 128 0.0 0.0 0.00 0.00 0.00 75 1015.2
20260510014449 63 128 0.0 0.0 0.00 0.00 0.00 76 1015.1
20260510014035 64 128 0.0 1.0 0.00 0.00 0.00 73 1015.3
20260510014014 63 128 0.0 0.0 0.00 0.00 0.00 72 1015.4
20260510012948 64 128 0.0 1.0 0.00 0.00 0.00 71 1015.6
20260510012447 64 128 0.0 0.0 0.00 0.00 0.00 71 1015.6
20260510011948 65 128 0.0 0.0 0.00 0.00 0.00 68 1015.6
20260510011449 64 128 0.0 0.0 0.00 0.00 0.00 68 1015.7
20260510010953 64 128 0.0 0.0 0.00 0.00 0.00 68 1015.9
20260510010450 65 128 0.0 0.0 0.00 0.00 0.00 72 1015.6
20260510005948 64 130 0.0 0.0 0.00 0.00 0.00 69 1015.8
20260510005449 65 130 0.0 0.0 0.00 0.00 0.00 73 1015.9
20260510004948 65 130 0.0 0.0 0.00 0.00 0.00 74 1015.7
20260510004447 65 129 0.0 0.0 0.00 0.00 0.00 72 1015.8
20260510003948 65 117 0.0 0.0 0.00 0.00 0.00 68 1015.9
20260510003449 65 143 0.0 0.0 0.00 0.00 0.00 67 1016.0
20260510002950 65 155 0.0 0.0 0.00 0.00 0.00 67 1015.8
20260510002450 66 138 0.0 0.0 0.00 0.00 0.00 67 1015.9
20260510001949 66 141 0.0 0.0 0.00 0.00 0.00 62 1015.9
20260510001448 66 139 0.0 0.0 0.00 0.00 0.00 62 1016.0
20260510000948 66 96 0.0 0.0 0.00 0.00 0.00 68 1016.2
20260510000737 66 115 0.0 0.0 0.00 0.00 0.00 68 1016.4
20260510000236 66 115 0.0 0.0 0.00 0.00 0.00 66 1016.3
20260509235448 66 113 0.0 0.0 0.00 0.00 0.00 70 1016.4
20260509234948 66 108 0.0 0.0 0.00 0.00 0.00 61 1016.5
20260509234448 66 99 0.0 0.0 0.00 0.00 0.00 60 1016.4
20260509233948 66 122 0.0 0.0 0.00 0.00 0.00 59 1016.3
20260509233449 66 140 0.0 0.0 0.00 0.00 0.00 60 1016.7
20260509232949 66 145 0.0 1.0 0.00 0.00 0.00 61 1016.8
20260509232448 66 134 0.0 1.0 0.00 0.00 0.00 64 1016.7
20260509232030 66 100 0.0 0.0 0.00 0.00 0.00 57 1016.5
20260509232013 66 122 0.0 0.0 0.00 0.00 0.00 65 1016.7
20260509230949 66 134 0.0 0.0 0.00 0.00 0.00 60 1016.9
20260509230449 66 152 0.0 0.0 0.00 0.00 0.00 58 1016.9
20260509230034 66 143 0.0 0.0 0.00 0.00 0.00 63 1017.1
20260509230015 66 87 0.0 0.0 0.00 0.00 0.00 59 1017.0
20260509224951 66 142 0.0 0.0 0.00 0.00 0.00 56 1017.2
20260509224739 66 110 0.0 0.0 0.00 0.00 0.00 61 1017.3
20260509223947 66 126 0.0 0.0 0.00 0.00 0.00 60 1017.3
20260509223449 66 127 0.0 0.0 0.00 0.00 0.00 57 1017.3
20260509222949 66 116 0.0 0.0 0.00 0.00 0.00 57 1017.3
20260509222449 66 160 0.0 0.0 0.00 0.00 0.00 60 1017.2
20260509221949 66 92 0.0 0.0 0.00 0.00 0.00 61 1017.3
20260509221743 67 121 0.0 0.0 0.00 0.00 0.00 58 1017.3
20260509220950 66 151 0.0 0.0 0.00 0.00 0.00 60 1017.4
20260509220449 66 173 0.0 0.0 0.00 0.00 0.00 60 1017.5
20260509215948 66 150 0.0 0.0 0.00 0.00 0.00 60 1017.4
20260509215740 66 161 0.0 0.0 0.00 0.00 0.00 60 1017.6
20260509214949 67 142 0.0 0.0 0.00 0.00 0.00 61 1017.3
20260509214451 67 156 0.0 0.0 0.00 0.00 0.00 60 1017.6
20260509213947 66 136 0.0 0.0 0.00 0.00 0.00 56 1017.3
20260509213436 66 161 0.0 0.0 0.00 0.00 0.00 58 1017.9
20260509212937 66 128 0.0 0.0 0.00 0.00 0.00 58 1017.7
20260509212437 66 156 0.0 0.0 0.00 0.00 0.00 61 1017.7
20260509211936 66 132 0.0 0.0 0.00 0.00 0.00 57 1017.8
20260509211437 67 119 0.0 0.0 0.00 0.00 0.00 57 1017.7
20260509210939 66 99 0.0 0.0 0.00 0.00 0.00 60 1017.8
20260509210436 66 96 0.0 0.0 0.00 0.00 0.00 57 1018.0
20260509205936 66 92 0.0 0.0 0.00 0.00 0.00 59 1017.9
20260509205438 66 126 0.0 0.0 0.00 0.00 0.00 62 1017.9
20260509204936 66 101 0.0 0.0 0.00 0.00 0.00 63 1017.9
20260509204436 66 131 0.0 0.0 0.00 0.00 0.00 61 1017.6
20260509203935 66 109 0.0 0.0 0.00 0.00 0.00 59 1017.8
20260509203437 66 148 0.0 0.0 0.00 0.00 0.00 59 1018.1
20260509202937 66 123 0.0 0.0 0.00 0.00 0.00 62 1018.0
20260509202437 65 133 0.0 0.0 0.00 0.00 0.00 61 1018.0
20260509202010 65 149 0.0 0.0 0.00 0.00 0.00 63 1018.2
20260509202001 65 137 0.0 0.0 0.00 0.00 0.00 60 1018.0
20260509200936 65 165 0.0 0.0 0.00 0.00 0.00 62 1018.4
20260509200733 65 166 0.0 0.0 0.00 0.00 0.00 61 1018.5
20260509195937 65 153 0.0 0.0 0.00 0.00 0.00 62 1018.5
20260509195437 65 167 0.0 0.0 0.00 0.00 0.00 66 1018.5
20260509194935 65 108 0.0 0.0 0.00 0.00 0.00 66 1018.5
20260509194729 64 107 0.0 0.0 0.00 0.00 0.00 64 1018.6
20260509193935 64 189 0.0 0.0 0.00 0.00 0.00 63 1018.8
20260509193441 64 112 0.0 0.0 0.00 0.00 0.00 65 1018.6
20260509192937 64 111 0.0 0.0 0.00 0.00 0.00 65 1019.0
20260509192436 64 142 0.0 0.0 0.00 0.00 0.00 65 1018.8
20260509191937 64 79 0.0 0.0 0.00 0.00 0.00 66 1018.9
20260509191439 64 153 0.0 0.0 0.00 0.00 0.00 66 1019.1
20260509190936 64 84 0.0 0.0 0.00 0.00 0.00 66 1019.1
20260509190437 64 127 0.0 0.0 0.00 0.00 0.00 65 1019.1
20260509185939 64 158 0.0 0.0 0.00 0.00 0.00 66 1019.2
20260509185439 63 142 0.0 0.0 0.00 0.00 0.00 67 1019.1
20260509184936 63 196 0.0 0.0 0.00 0.00 0.00 68 1019.1
20260509184437 63 89 0.0 0.0 0.00 0.00 0.00 68 1019.0
20260509184223 63 147 0.0 0.0 0.00 0.00 0.00 69 1019.0
20260509183743 62 136 0.0 0.0 0.00 0.00 0.00 68 1019.5
20260509183227 62 136 0.0 0.0 0.00 0.00 0.00 69 1019.3
20260509182737 62 142 0.0 0.0 0.00 0.00 0.00 70 1019.2
20260509181936 62 153 0.0 0.0 0.00 0.00 0.00 70 1019.3
20260509181729 62 172 0.0 0.0 0.00 0.00 0.00 69 1019.3
20260509180938 62 171 0.0 0.0 0.00 0.00 0.00 68 1019.3
20260509180436 62 116 0.0 0.0 0.00 0.00 0.00 66 1019.3
20260509175937 62 121 0.0 0.0 0.00 0.00 0.00 63 1019.2
20260509175437 61 70 0.0 0.0 0.00 0.00 0.00 64 1019.3
20260509175219 61 108 0.0 0.0 0.00 0.00 0.00 67 1019.5
20260509174436 61 128 0.0 0.0 0.00 0.00 0.00 66 1019.7
20260509173936 60 134 0.0 0.0 0.00 0.00 0.00 67 1019.3
20260509173737 60 138 0.0 0.0 0.00 0.00 0.00 68 1019.7
20260509172936 60 132 0.0 0.0 0.00 0.00 0.00 69 1019.5
20260509172722 60 144 0.0 0.0 0.00 0.00 0.00 71 1019.5
20260509171937 59 138 0.0 0.0 0.00 0.00 0.00 74 1019.8
20260509171437 59 130 0.0 0.0 0.00 0.00 0.00 73 1019.6
20260509170937 59 116 0.0 0.0 0.00 0.00 0.00 74 1019.6
20260509170435 58 67 0.0 0.0 0.00 0.00 0.00 72 1019.9
20260509165936 58 118 0.0 0.0 0.00 0.00 0.00 74 1019.6
20260509165438 58 137 0.0 0.0 0.00 0.00 0.00 74 1019.8
20260509164937 58 139 0.0 0.0 0.00 0.00 0.00 75 1019.9
20260509164436 58 118 0.0 0.0 0.00 0.00 0.00 77 1019.9
20260509163937 58 112 0.0 0.0 0.00 0.00 0.00 80 1019.8
20260509163435 58 112 0.0 0.0 0.00 0.00 0.00 79 1020.0
20260509162935 57 135 0.0 0.0 0.00 0.00 0.00 78 1020.1
20260509162437 57 353 0.0 0.0 0.00 0.00 0.00 77 1020.3
20260509161938 56 135 0.0 0.0 0.00 0.00 0.00 82 1020.0
20260509161429 56 132 0.0 0.0 0.00 0.00 0.00 82 1020.1
20260509160930 56 132 0.0 0.0 0.00 0.00 0.00 81 1020.2
20260509160430 56 108 0.0 0.0 0.00 0.00 0.00 82 1020.3
20260509155929 55 65 0.0 0.0 0.00 0.00 0.00 81 1020.2
20260509155429 55 87 0.0 0.0 0.00 0.00 0.00 82 1020.4
20260509154929 55 152 0.0 0.0 0.00 0.00 0.00 86 1020.3
20260509154726 54 129 0.0 0.0 0.00 0.00 0.00 87 1020.3
20260509153928 54 147 0.0 0.0 0.00 0.00 0.00 88 1020.2
20260509153430 54 156 0.0 0.0 0.00 0.00 0.00 89 1020.3
20260509152929 53 145 0.0 0.0 0.00 0.00 0.00 92 1020.2
20260509152723 52 160 0.0 0.0 0.00 0.00 0.00 94 1020.3
20260509151929 51 144 0.0 0.0 0.00 0.00 0.00 98 1020.2
20260509151429 50 112 0.0 0.0 0.00 0.00 0.00 99 1020.5
20260509150928 50 138 0.0 0.0 0.00 0.00 0.00 99 1020.4
20260509150430 49 138 0.0 0.0 0.00 0.00 0.00 99 1020.4
20260509145929 49 138 0.0 0.0 0.00 0.00 0.00 99 1020.6
20260509145429 48 138 0.0 0.0 0.00 0.00 0.00 99 1020.5
20260509144929 48 138 0.0 0.0 0.00 0.00 0.00 99 1020.8
20260509144718 48 138 0.0 0.0 0.00 0.00 0.00 99 1020.5
20260509144225 47 138 0.0 0.0 0.00 0.00 0.00 99 1020.4
20260509143429 47 137 0.0 0.0 0.00 0.00 0.00 99 1020.7
20260509142929 47 137 0.0 0.0 0.00 0.00 0.00 99 1020.9
20260509142429 47 137 0.0 0.0 0.00 0.00 0.00 99 1020.9
20260509141928 46 137 0.0 0.0 0.00 0.00 0.00 99 1020.9
20260509141434 46 137 0.0 0.0 0.00 0.00 0.00 99 1020.9
20260509140932 46 137 0.0 0.0 0.00 0.00 0.00 99 1020.9
20260509140431 46 137 0.0 0.0 0.00 0.00 0.00 99 1020.9
20260509140222 45 137 0.0 0.0 0.00 0.00 0.00 99 1021.0
20260509135719 45 137 0.0 0.0 0.00 0.00 0.00 99 1020.9
20260509134929 45 138 0.0 0.0 0.00 0.00 0.00 99 1020.8
20260509134429 45 138 0.0 0.0 0.00 0.00 0.00 99 1020.8
20260509133930 45 138 0.0 0.0 0.00 0.00 0.00 99 1021.1
20260509133429 45 138 0.0 0.0 0.00 0.00 0.00 99 1020.9
20260509132930 45 138 0.0 0.0 0.00 0.00 0.00 99 1021.0
20260509132429 45 138 0.0 0.0 0.00 0.00 0.00 99 1020.9
20260509131929 45 138 0.0 0.0 0.00 0.00 0.00 99 1020.8
20260509131429 44 138 0.0 0.0 0.00 0.00 0.00 99 1020.8
20260509130929 44 139 0.0 0.0 0.00 0.00 0.00 99 1020.9
20260509130429 44 139 0.0 0.0 0.00 0.00 0.00 99 1020.8
20260509125931 45 139 0.0 0.0 0.00 0.00 0.00 99 1020.7
20260509125719 45 138 0.0 0.0 0.00 0.00 0.00 99 1020.6
20260509125216 44 138 0.0 0.0 0.00 0.00 0.00 99 1020.7
20260509124430 45 138 0.0 0.0 0.00 0.00 0.00 99 1020.9
20260509124216 45 138 0.0 0.0 0.00 0.00 0.00 99 1020.8
20260509123429 45 140 0.0 0.0 0.00 0.00 0.00 99 1021.0
20260509122929 45 140 0.0 0.0 0.00 0.00 0.00 99 1020.7
20260509122718 45 140 0.0 0.0 0.00 0.00 0.00 99 1021.0
20260509121929 45 140 0.0 0.0 0.00 0.00 0.00 99 1021.0
20260509121726 45 140 0.0 0.0 0.00 0.00 0.00 99 1021.1
20260509120929 45 140 0.0 0.0 0.00 0.00 0.00 98 1020.8
20260509120717 45 140 0.0 0.0 0.00 0.00 0.00 98 1020.9
20260509120228 45 140 0.0 0.0 0.00 0.00 0.00 98 1020.8
20260509115430 45 140 0.0 0.0 0.00 0.00 0.00 98 1021.1
20260509114929 45 140 0.0 0.0 0.00 0.00 0.00 98 1021.0
20260509114430 45 140 0.0 0.0 0.00 0.00 0.00 98 1021.2
20260509114218 46 140 0.0 0.0 0.00 0.00 0.00 98 1020.9
20260509113429 46 140 0.0 0.0 0.00 0.00 0.00 98 1021.1
20260509113219 46 140 0.0 0.0 0.00 0.00 0.00 98 1021.0
20260509112428 46 140 0.0 0.0 0.00 0.00 0.00 98 1020.8
20260509112017 46 140 0.0 0.0 0.00 0.00 0.00 98 1021.3
20260509111955 46 140 0.0 0.0 0.00 0.00 0.00 98 1021.1
20260509110929 46 140 0.0 0.0 0.00 0.00 0.00 98 1021.2
20260509110430 46 140 0.0 0.0 0.00 0.00 0.00 97 1021.0
20260509105929 46 140 0.0 0.0 0.00 0.00 0.00 97 1021.1
20260509105456 46 140 0.0 0.0 0.00 0.00 0.00 97 1021.2
20260509104429 46 140 0.0 0.0 0.00 0.00 0.00 97 1021.0
20260509103929 46 140 0.0 0.0 0.00 0.00 0.00 97 1021.1
20260509103429 46 140 0.0 0.0 0.00 0.00 0.00 97 1021.3
20260509102929 47 140 0.0 0.0 0.00 0.00 0.00 97 1021.3
20260509102429 47 140 0.0 0.0 0.00 0.00 0.00 97 1021.5
20260509101929 47 140 0.0 0.0 0.00 0.00 0.00 97 1021.4
20260509101429 47 140 0.0 0.0 0.00 0.00 0.00 97 1021.3
20260509100929 47 140 0.0 0.0 0.00 0.00 0.00 96 1021.4
20260509100719 47 140 0.0 0.0 0.00 0.00 0.00 96 1021.5
20260509095929 47 140 0.0 0.0 0.00 0.00 0.00 96 1021.5
20260509095429 47 140 0.0 0.0 0.00 0.00 0.00 96 1021.5
20260509095218 47 140 0.0 0.0 0.00 0.00 0.00 96 1021.4
20260509094429 47 140 0.0 0.0 0.00 0.00 0.00 96 1021.4
20260509093928 47 140 0.0 0.0 0.00 0.00 0.00 95 1021.5
20260509093429 47 140 0.0 0.0 0.00 0.00 0.00 95 1021.4
20260509092928 47 140 0.0 0.0 0.00 0.00 0.00 95 1021.6
20260509092428 47 140 0.0 0.0 0.00 0.00 0.00 94 1021.3
20260509091929 48 139 0.0 0.0 0.00 0.00 0.00 94 1021.7
20260509091433 48 140 0.0 0.0 0.00 0.00 0.00 94 1021.5
20260509090933 48 140 0.0 0.0 0.00 0.00 0.00 94 1021.6
20260509090434 48 140 0.0 0.0 0.00 0.00 0.00 94 1021.6
20260509090216 48 140 0.0 0.0 0.00 0.00 0.00 94 1021.6
20260509085433 48 140 0.0 0.0 0.00 0.00 0.00 94 1021.2
20260509084932 48 140 0.0 0.0 0.00 0.00 0.00 94 1021.5
20260509084444 48 140 0.0 0.0 0.00 0.00 0.00 94 1021.5
20260509083932 48 140 0.0 0.0 0.00 0.00 0.00 94 1021.5
20260509083434 48 140 0.0 0.0 0.00 0.00 0.00 94 1021.7
20260509082933 48 140 0.0 0.0 0.00 0.00 0.00 94 1021.7
20260509082445 48 140 0.0 0.0 0.00 0.00 0.00 93 1021.6
20260509081933 48 140 0.0 0.0 0.00 0.00 0.00 93 1021.8
20260509081519 49 139 0.0 0.0 0.00 0.00 0.00 92 1021.5
20260509081501 49 140 0.0 0.0 0.00 0.00 0.00 93 1021.4
20260509080444 49 139 0.0 0.0 0.00 0.00 0.00 92 1021.4
20260509075934 49 139 0.0 0.0 0.00 0.00 0.00 92 1021.5
20260509075433 49 139 0.0 0.0 0.00 0.00 0.00 92 1021.6
20260509074932 49 139 0.0 0.0 0.00 0.00 0.00 91 1021.4
20260509074717 49 138 0.0 0.0 0.00 0.00 0.00 91 1021.5
20260509073932 49 138 0.0 0.0 0.00 0.00 0.00 91 1021.3
20260509073526 49 137 0.0 0.0 0.00 0.00 0.00 90 1021.3
20260509072432 50 147 0.0 0.0 0.00 0.00 0.00 89 1021.2
20260509071939 50 147 0.0 0.0 0.00 0.00 0.00 89 1021.2
20260509071434 50 147 0.0 0.0 0.00 0.00 0.00 90 1021.3
20260509070934 49 147 0.0 0.0 0.00 0.00 0.00 90 1021.3
20260509070430 49 147 0.0 0.0 0.00 0.00 0.00 90 1021.2
20260509070215 49 147 0.0 0.0 0.00 0.00 0.00 90 1021.4
20260509065430 49 147 0.0 0.0 0.00 0.00 0.00 89 1021.5
20260509064930 49 147 0.0 0.0 0.00 0.00 0.00 89 1021.1
20260509064715 50 147 0.0 0.0 0.00 0.00 0.00 89 1021.1
20260509063932 50 147 0.0 0.0 0.00 0.00 0.00 88 1021.3
20260509063430 50 147 0.0 0.0 0.00 0.00 0.00 88 1021.2
20260509063208 50 147 0.0 0.0 0.00 0.00 0.00 88 1021.2
20260509062430 50 147 0.0 0.0 0.00 0.00 0.00 88 1021.2
20260509061932 50 147 0.0 0.0 0.00 0.00 0.00 87 1021.3
20260509061755 51 147 0.0 0.0 0.00 0.00 0.00 87 1021.1
20260509060930 51 147 0.0 0.0 0.00 0.00 0.00 87 1021.0
20260509060451 51 147 0.0 0.0 0.00 0.00 0.00 87 1021.1
20260509060215 51 147 0.0 0.0 0.00 0.00 0.00 87 1020.9
20260509055431 51 147 0.0 0.0 0.00 0.00 0.00 86 1021.0
20260509054930 51 147 0.0 0.0 0.00 0.00 0.00 86 1020.9
20260509054431 51 147 0.0 0.0 0.00 0.00 0.00 86 1020.8
20260509054225 51 147 0.0 0.0 0.00 0.00 0.00 86 1020.9
20260509053431 51 147 0.0 0.0 0.00 0.00 0.00 86 1020.9
20260509052935 51 147 0.0 0.0 0.00 0.00 0.00 86 1020.6
20260509052430 51 147 0.0 0.0 0.00 0.00 0.00 86 1021.0
20260509052057 52 147 0.0 0.0 0.00 0.00 0.00 85 1020.8
20260509052038 52 147 0.0 0.0 0.00 0.00 0.00 86 1020.8
20260509050930 52 147 0.0 0.0 0.00 0.00 0.00 85 1020.8
20260509050430 52 147 0.0 0.0 0.00 0.00 0.00 85 1020.8
20260509045930 52 147 0.0 0.0 0.00 0.00 0.00 85 1020.8
20260509045534 52 147 0.0 0.0 0.00 0.00 0.00 84 1020.9
20260509045512 52 147 0.0 0.0 0.00 0.00 0.00 84 1020.6
20260509044427 52 147 0.0 0.0 0.00 0.00 0.00 84 1020.5
20260509043927 52 147 0.0 0.0 0.00 0.00 0.00 83 1020.7